Regional Weather Roundup
Issued by NWS

Home | Current Version | Previous Version | Graphics & Text | Print | Product List | Glossary On
Versions: 1 2 3 4 5 6 7 8 9 10 11 12 13 14 15 16 17 18 19 20 21 22 23 24 25 26 27 28 29 30 31 32 33 34 35 36 37 38 39 40 41 42 43 44 45 46 47 48 49
302
ASUS45 KBOU 070107
RWRCO

WEATHER ROUNDUP FOR COLORADO
NATIONAL WEATHER SERVICE DENVER/BOULDER CO
600 PM MST SAT FEB 06 2016

NOTE: "FAIR" INDICATES FEW OR NO CLOUDS BELOW 12000 FEET WITH NO
SIGNIFICANT WEATHER AND/OR OBSTRUCTIONS TO VISIBILITY.

COZ001>005-013-030-031-070200-
...NORTHWEST COLORADO...

CITY           SKY/WX    TMP DP  RH WIND       PRES   REMARKS
CRAIG          CLOUDY    12   7  80 CALM      30.38F
HAYDEN         CLOUDY    18   7  62 CALM      30.37S
MEEKER         CLOUDY    20  12  71 CALM      30.38R
MOUNT WERNER   NOT AVBL
STEAMBOAT SPGS CLOUDY    17  10  74 CALM      30.37S
WALDEN         CLOUDY    30  12  47 S13G24    30.30R WCI  20
$$

COZ006>008-011-070200-
...WEST CENTRAL VALLEYS...

CITY           SKY/WX    TMP DP  RH WIND       PRES   REMARKS
GRAND JUNCTION CLOUDY    15  11  83 N3        30.48F
MONTROSE       CLOUDY    24  13  62 CALM      30.45R
EAGLE          CLEAR     25  16  68 CALM      30.41S
RIFLE          CLOUDY    18   8  65 SE5       30.44S WCI  11
DELTA          CLOUDY    27  17  65 W6        30.46S WCI  21
NUCLA          CLOUDY    32  14  47 NW3       30.45R
$$

COZ017>023-064>068-070200-
...SOUTHWEST COLORADO...

CITY           SKY/WX    TMP DP  RH WIND       PRES   REMARKS
DURANGO        CLOUDY    20  10  65 CALM      30.37S
CORTEZ         CLOUDY    30  19  63 W7        30.39S WCI  23
PAGOSA SPRINGS CLOUDY    25  17  70 CALM      30.37R
TELLURIDE      NOT AVBL
WOLF CREEK PAS CLOUDY    23   9  54 NW7       30.41S WCI  15
$$

COZ009-010-012-014-032>034-037-058>063-070200-
...CENTRAL COLORADO...

CITY           SKY/WX    TMP DP  RH WIND       PRES   REMARKS
ASPEN          CLOUDY    18  10  71 S5        30.38R WCI  11
BUENA VISTA    CLOUDY    35  15  43 NW20      30.27R WCI  24
COPPER MTN     CLOUDY    21  12  68 W20G25    30.35F WCI   6
BERTHOUD PASS  FAIR      12   1  62 NW49G58   30.21F HAZE    WCI -14
COTTONWOOD PAS CLOUDY    34   7  32 W18G31    30.31R WCI  23
GUNNISON       CLOUDY     3  -8  60 NE7       30.46R WCI  -9
KREMMLING      CLOUDY    10   3  72 CALM      30.41R
LEADVILLE      CLOUDY    24   9  52 CALM      30.33R
MONARCH PASS     N/A     12   9  85 MISG      30.42S
SALIDA         NOT AVBL
SUNLIGHT       CLOUDY    23  19  86 CALM        N/A
WILKERSON PASS CLOUDY    25  10  54 W9G18     30.30F WCI  15
$$

COZ069>075-070200-
...SAN LUIS VALLEY/SANGRE DE CRISTO MOUNTAINS...

CITY           SKY/WX    TMP DP  RH WIND       PRES   REMARKS
ALAMOSA        CLOUDY    21  10  62 W8        30.33S WCI  11
LA VETA PASS   CLOUDY    21  10  63 MISG      30.28R
SAGUACHE       CLOUDY    14   7  73 CALM      30.34S
$$

COZ035-036-038>040-070200-
...NORTHERN COLORADO FRONT RANGE...

CITY           SKY/WX    TMP DP  RH WIND       PRES   REMARKS
DENVER INTL AP CLOUDY    44  19  36 W17G23    30.08S
DMNS CITY PARK   N/A     49  13  24 NW9G16    30.10S
AURORA         MOCLDY    45  18  34 W12       30.11R
FRONT RANGE AP MOCLDY    37  23  56 SW8G17    30.10R
ERIE MUNI ARPT CLOUDY    47  15  28 W24G31    30.08S
BOULDER MUN AP CLOUDY    48  14  25 NW26G35   30.08S
CENTENNIAL     CLOUDY    44  18  35 SW14      30.11R
BROOMFIELD     MOCLDY    46  16  29 W18G31    30.10S
FORT COLLINS   CLOUDY    32  21  64 E13       30.08S WCI  22
LONGMONT       CLOUDY    38  23  54 SE3       30.10S
$$

COZ041-046-047-076>085-087-088-070200-
...PIKES PEAK/PALMER DIVIDE AND SOUTHERN FOOTHILLS...

CITY           SKY/WX    TMP DP  RH WIND       PRES   REMARKS
COLO. SPRINGS  CLOUDY    37  10  32 N5        30.15S
A. F. ACADEMY  CLOUDY    44  13  29 VRB7      30.13F
SCHRIEVER AFB  FAIR      31  12  46 NW3       30.15S
ELLICOTT       NOT AVBL
FALCON         CLOUDY    31  13  46 CALM      30.16S
FORT CARSON    CLOUDY    34  15  46 NW1       30.12F
LIMON          CLOUDY    16  12  84 N9        30.12S WCI   4
MONUMENT HILL  CLOUDY    34  18  51 SW9       30.16S WCI  26
TRINIDAD       CLEAR     49  14  24 CALM      30.17S
$$

COZ042>045-048>051-090-091-070200-
...NORTHEAST COLORADO...

CITY           SKY/WX    TMP DP  RH WIND       PRES   REMARKS
GREELEY ARPT   CLOUDY    25  18  74 CALM      30.10R
AKRON          CLOUDY    37  24  59 SW18      30.04F
BURLINGTON     CLOUDY    34  21  59 SW16      30.09S WCI  24
WRAY           CLOUDY    37  28  69 SW9       30.03F
STERLING       CLOUDY    28  21  74 SW7       30.05R WCI  21
HOLYOKE        CLOUDY    34  27  75 W13       30.03S WCI  25
FORT MORGAN    CLOUDY    29  19  66 W13       30.07S WCI  18
$$

COZ086-089-092>099-070200-
...SOUTHEAST COLORADO...

CITY           SKY/WX    TMP DP  RH WIND       PRES   REMARKS
PUEBLO         CLEAR     34  22  61 N7        30.13S WCI  28
LA JUNTA       CLEAR     34  24  67 CALM      30.12F
LAMAR          CLEAR     33  23  66 SW5       30.10F WCI  29
SPRINGFIELD      N/A     37   9  31 S7        30.15R
$$




USA.gov is the U.S. government's official web portal to all federal, state and local government web resources and services.